Chittagong, Bangladesh

3:55 PM +06 on September 23, 2019 (GMT +0600)
M.A. Hannan International

Weather History for VGEG - August, 2019

Change the Weather History Date:

Sunday, August 25, 2019

  Actual Average Record
Temperature  
Mean Temperature 86 °F -  
Max Temperature 94 °F 84 °F 92 °F (2015)
Min Temperature 79 °F 78 °F 77 °F (2005)
Cooling Degree Days 22    
Growing Degree Days 36 (Base 50)    
Moisture  
Dew Point 78 °F    
Average Humidity 75    
Maximum Humidity 95    
Minimum Humidity 49    
Precipitation  
Precipitation 0.35 in - - ()
Sea Level Pressure  
Sea Level Pressure 29.63 in    
Wind  
Wind Speed 3 mph ()    
Max Wind Speed 9 mph    
Max Gust Speed -    
Visibility 3.1 miles    
Events Rain , Thunderstorm    
Averages and records for this station are not official NWS values.
T = Trace of Precipitation, MM = Missing Value Source: Averaged Metar Reports

Daily Weather History Graph

Daily Weather History Graph

Search for Another Location

Airport or City:

Astronomy

Aug. 25, 2019 Rise Set
Actual Time 5:33 AM +06 6:16 PM +06
Civil Twilight 5:10 AM +06 6:39 PM +06
Nautical Twilight 4:43 AM +06 7:06 PM +06
Astronomical Twilight 4:15 AM +06 7:33 PM +06
Moon 12:03 AM +06 (8/25) 1:43 PM +06 (8/25)
Length of Visible Light 13h 29m
Length of Day
12h 43m
Waning Crescent, 33% of the Moon is Illuminated
Aug 25
Waning Crescent
Aug 30
New
Sep 6
First Quarter
Sep 14
Full
Sep 22
Last Quarter

Hourly Weather History & Observations

Time (+06) Temp. Heat Index Dew Point Humidity Pressure Visibility Wind Dir Wind Speed Gust Speed Precip Events Conditions
12:00 AM 82 °F - 77 °F 81% 29.69 in 3 mi SSE 5.8 mph - -   Partly Cloudy
3:00 AM 81 °F - 77 °F 84% 29.68 in 2 mi Calm Calm - -   Partly Cloudy
6:00 AM 80 °F - 79 °F 95% 29.66 in 2 mi Calm Calm - -   Partly Cloudy
8:00 AM 82.4 °F 90.9 °F 77.0 °F 84% 29.68 in 3.1 mi Calm Calm - N/A   Scattered Clouds
9:00 AM 87 °F - 77 °F 65% 29.69 in 4 mi SSE 3.5 mph - -   Scattered Clouds
9:00 AM 86.0 °F 96.9 °F 77.0 °F 74% 29.68 in 3.7 mi SSE 3.5 mph - N/A   Scattered Clouds
10:00 AM 87.8 °F 99.7 °F 77.0 °F 70% 29.68 in 3.7 mi South 3.5 mph - N/A   Scattered Clouds
11:00 AM 89.6 °F 102.2 °F 77.0 °F 66% 29.65 in 3.7 mi East 5.8 mph - N/A   Mostly Cloudy
12:00 PM 92 °F - 77 °F 53% 29.64 in 4 mi SSW 9.2 mph - -   Partly Cloudy
12:00 PM 91.4 °F 105.1 °F 77.0 °F 63% 29.62 in 3.7 mi SSW 9.2 mph - N/A   Mostly Cloudy
1:00 PM 93.2 °F 107.2 °F 77.0 °F 59% 29.59 in 3.7 mi ESE 6.9 mph - N/A   Mostly Cloudy
2:00 PM 93.2 °F 107.2 °F 77.0 °F 59% 29.56 in 3.7 mi South 5.8 mph - N/A   Mostly Cloudy
3:00 PM 94 °F - 77 °F 49% 29.57 in 3 mi SSW 9.2 mph - -   Partly Cloudy
3:00 PM 93.2 °F 107.2 °F 77.0 °F 59% 29.56 in 3.1 mi SSW 9.2 mph - N/A   Mostly Cloudy
4:00 PM 89.6 °F 104.7 °F 78.8 °F 70% 29.56 in 3.1 mi SSW 4.6 mph - N/A Rain Rain
5:00 PM 89.6 °F 104.7 °F 78.8 °F 70% 29.56 in 3.1 mi SSW 5.8 mph - N/A   Mostly Cloudy
6:00 PM 85 °F - 82 °F 90% 29.60 in 1 mi South 6.9 mph - - Rain , Thunderstorm Thunderstorms and Rain
7:00 PM 84.2 °F 98.3 °F 80.6 °F 89% 29.62 in 2.5 mi Calm Calm - N/A   Overcast
8:00 PM 84.2 °F 98.3 °F 80.6 °F 89% 29.65 in 3.1 mi Calm Calm - N/A   Mostly Cloudy
9:00 PM 81 °F - 79 °F 91% 29.66 in 3 mi Calm Calm - - Rain Light Rain
9:00 PM 80.6 °F 88.1 °F 78.8 °F 94% 29.65 in 3.1 mi Calm Calm - N/A Rain Rain
10:00 PM 80.6 °F 87.1 °F 77.0 °F 89% 29.68 in 3.1 mi Calm Calm - N/A   Mostly Cloudy
11:00 PM 80.6 °F 87.1 °F 77.0 °F 89% 29.65 in 3.1 mi Calm Calm - N/A   Mostly Cloudy